Location: Unspecified
(0.0000°N, 0.0000°E)
Time: 11:14:22
(UTC+00:00)

Explorer 11/Cluster Stage 4 - Pass Details

Date: 06 October 2020
Orbit: 467 x 1258 km, 28.8° (Epoch: 28 October)

Event Time Altitude Azimuth Distance (km) Brightness Sun altitude
Rises 08:43:29 0° 251° (WSW) 4,183 9.9 43.6°
Reaches altitude 10° 08:48:45 10° 224° (SW) 3,229 9.6 44.9°
Maximum altitude 08:51:51 12° 201° (SSW) 3,022 9.6 45.7°
Drops below altitude 10° 08:54:55 10° 179° (S) 3,162 9.9 46.5°
Sets 08:59:57 0° 151° (SSE) 4,004 10.5 47.7°
